Weather History for Doylestown, PA

Change the Weather History Date:

Wednesday, November 13, 2013

  Actual Average (KTTN) Record (KTTN)
Temperature  
Mean Temperature 32 °F 47 °F  
Max Temperature 39 °F 56 °F 73 °F (1912)
Min Temperature 25 °F 38 °F 20 °F (1986)
Degree Days  
Heating Degree Days 33 18  
Month to date heating degree days 216  
Since 1 July heating degree days 613  
Cooling Degree Days 0 0  
Month to date cooling degree days 0  
Year to date cooling degree days 965  
Moisture  
Dew Point 14 °F    
Average Humidity 53    
Maximum Humidity 69    
Minimum Humidity 36    
Precipitation  
Precipitation 0.00 in 0.09 in 1.58 in (1937)
Month to date precipitation 1.36  
Year to date precipitation 40.79  
Snow  
Snow 0.00 in - - ()
Month to date snowfall  
Since 1 July snowfall  
Since 1 September snowfall  
Snow Depth -    
Sea Level Pressure  
Sea Level Pressure 30.36 in    
Wind  
Wind Speed 8 mph (WNW)    
Max Wind Speed 15 mph    
Max Gust Speed 28 mph    
Visibility 10 miles    
Events      
T = Trace of Precipitation, MM = Missing Value Source: NWS Daily Summary

Daily Weather History Graph

Daily Weather History Graph

Search for Another Location

Airport:

Trip Planner

Search our weather history database for the weather conditions in past years. The results will help you decide how hot, cold, wet, or windy it might be!

Date:

Astronomy

Nov. 13, 2013 Rise Set
Actual Time 6:44 AM EST 4:44 PM EST
Civil Twilight 6:15 AM EST 5:13 PM EST
Nautical Twilight 5:42 AM EST 5:46 PM EST
Astronomical Twilight 5:10 AM EST 6:18 PM EST
Moon 2:31 PM EST (11/13) 2:34 AM EST (11/13)
Length of Visible Light 10h 58m
Length of Day
10h 00m
Waxing Gibbous, 84% of the Moon is Illuminated
Nov 13
Waxing Gibbous
Nov 17
Full
Nov 25
Last Quarter
Dec 2
New
Dec 9
First Quarter

Hourly Weather History & Observations

Time (EST) Temp. Windchill Dew Point Humidity Pressure Visibility Wind Dir Wind Speed Gust Speed Precip Events Conditions
12:54 AM 27.0 °F 19.5 °F 12.9 °F 56% 30.34 in 10.0 mi NW 6.9 mph - N/A   Clear
1:54 AM 27.0 °F 21.6 °F 10.9 °F 51% 30.35 in 10.0 mi NW 4.6 mph - N/A   Clear
2:54 AM 26.1 °F 18.4 °F 12.0 °F 55% 30.34 in 10.0 mi NW 6.9 mph - N/A   Clear
3:54 AM 26.1 °F 17.6 °F 12.0 °F 55% 30.35 in 10.0 mi NW 8.1 mph - N/A   Clear
4:54 AM 25.0 °F 19.3 °F 10.9 °F 55% 30.36 in 10.0 mi NW 4.6 mph - N/A   Clear
5:54 AM 25.0 °F 14.8 °F 12.0 °F 58% 30.37 in 10.0 mi NW 10.4 mph - N/A   Clear
6:54 AM 25.0 °F 14.8 °F 12.9 °F 60% 30.38 in 10.0 mi NW 10.4 mph - N/A   Clear
7:54 AM 26.1 °F 16.8 °F 14.0 °F 60% 30.40 in 10.0 mi NW 9.2 mph 17.3 mph N/A   Clear
8:54 AM 28.9 °F 17.7 °F 14.0 °F 54% 30.42 in 10.0 mi NNW 15.0 mph 27.6 mph N/A   Clear
9:54 AM 32.0 °F 23.6 °F 12.0 °F 44% 30.43 in 10.0 mi NNW 10.4 mph 21.9 mph N/A   Clear
10:54 AM 34.0 °F 24.6 °F 12.0 °F 40% 30.41 in 10.0 mi NW 13.8 mph 21.9 mph N/A   Clear
12:54 PM 37.0 °F 29.8 °F 12.9 °F 37% 30.35 in 10.0 mi NW 10.4 mph 21.9 mph N/A   Clear
1:54 PM 39.0 °F 31.0 °F 14.0 °F 36% 30.33 in 10.0 mi WNW 13.8 mph - N/A   Clear
2:54 PM 39.0 °F 32.3 °F 14.0 °F 36% 30.33 in 10.0 mi NW 10.4 mph 20.7 mph N/A   Clear
3:54 PM 37.9 °F 32.7 °F 15.1 °F 39% 30.33 in 10.0 mi NW 6.9 mph - N/A   Clear
4:54 PM 35.1 °F 29.3 °F 15.1 °F 44% 30.34 in 10.0 mi West 6.9 mph - N/A   Clear
5:54 PM 32.0 °F 27.5 °F 16.0 °F 52% 30.35 in 10.0 mi SW 4.6 mph - N/A   Clear
6:54 PM 30.9 °F 27.5 °F 16.0 °F 54% 30.36 in 10.0 mi SSW 3.5 mph - N/A   Clear
7:54 PM 30.9 °F 27.5 °F 17.1 °F 57% 30.35 in 10.0 mi SW 3.5 mph - N/A   Clear
8:54 PM 30.0 °F 26.5 °F 18.0 °F 61% 30.35 in 10.0 mi SW 3.5 mph - N/A   Clear
9:54 PM 28.9 °F 25.2 °F 19.0 °F 67% 30.33 in 10.0 mi SW 3.5 mph - N/A   Clear
10:54 PM 28.0 °F 21.7 °F 19.0 °F 69% 30.32 in 10.0 mi SW 5.8 mph - N/A   Clear
11:54 PM 28.0 °F 21.7 °F 19.0 °F 69% 30.30 in 10.0 mi SW 5.8 mph - N/A   Clear